Current weather by "City, St" or "zip code"  
 
Advertise Here

Current Conditions: Bloomington, Monroe County Airport, IN

Mostly Cloudy


76.0 F

Last Updated on Aug 4 2020, 5:53 pm EDT
Humidity: 54%
Wind Speed: N 9.2 mph
Barometer 30.03 in
Dewpoint: 57.9 F
Visibility: 10.00 mi
Precip: --
Heat Index: NA
Wind Chill: NA
Current conditions at:

Bloomington, Monroe County Airport, IN (KBMG)

Lat: 39.14306 Lon: 86.61667

Local Radar Image active severe weather and emergency alerts image image weather storm and storm spotter reports image weather observation monitoring service image
Local
Radar
Active
Alerts
Storm Reports Obs
Monitoring

Sign-up For Email & Text Message Weather Alert Notification Services


Advertise Here

Observation History for Bloomington, Monroe County Airport, IN


Time Wind
(mph)
Vis
(mi)
Weather Precip (in) Temperature (F) Relative
Humidity
Wind
Chill
(F)
Heat
Index
(F)
Pressure
Air Dwpt altimeter
(in)
sea level
(mb)
Rmks
5:53 pm EDT N 9.2 10.00 Mostly Cloudy -- 76.0 57.9 54% NA NA 30.03 1016.4
4:53 pm EDT NW 9.2 10.00 Partly Cloudy -- 77.0 57.9 52% NA NA 30.03 1016.3
3:53 pm EDT W 9.2 10.00 Mostly Cloudy -- 76.0 57.0 52% NA NA 30.03 1016.4
2:53 pm EDT NW 5.8 10.00 Partly Cloudy -- 75.0 57.0 54% NA NA 30.03 1016.3
1:53 pm EDT 3.5 10.00 Overcast -- 73.0 59.0 62% NA NA 30.03 1016.3
12:53 pm EDT N 9.2 G 17.3 10.00 Mostly Cloudy -- 73.0 60.1 64% NA NA 30.02 1016.0
11:53 am EDT N 5.8 10.00 Overcast -- 71.0 61.0 71% NA NA 30.03 1016.2
10:53 am EDT N 6.9 10.00 Overcast -- 69.0 61.0 76% NA NA 30.02 1015.9
9:53 am EDT N 8.1 10.00 Overcast -- 66.0 61.0 84% NA NA 30.01 1015.7
8:53 am EDT N 6.9 10.00 Overcast -- 65.0 61.0 87% NA NA 30.00 1015.4
7:53 am EDT N 4.6 10.00 Overcast Trace 64.0 61.0 90% NA NA 29.99 1015.0
6:53 am EDT N 4.6 10.00 Light Rain Trace 64.0 61.0 90% NA NA 29.99 1014.8
5:53 am EDT NW 3.5 10.00 A Few Clouds -- 63.0 60.1 90% NA NA 29.98 1014.6
4:53 am EDT NW 4.6 10.00 Mostly Cloudy -- 64.0 61.0 90% NA NA 29.97 1014.2
3:53 am EDT N 3.5 10.00 Fair -- 64.0 60.1 87% NA NA 29.96 1014.0
2:53 am EDT N 5.8 10.00 Fair -- 65.0 62.1 90% NA NA 29.96 1013.9
1:53 am EDT N 5.8 10.00 Partly Cloudy -- 67.0 63.0 87% NA NA 29.97 1014.1
12:53 am EDT 3.5 10.00 Partly Cloudy -- 68.0 64.9 90% NA NA 29.98 1014.4
11:53 pm EDT N 0.0 8.00 Overcast -- 67.0 64.9 93% NA NA 29.97 1014.3
10:53 pm EDT N 0.0 9.00 A Few Clouds -- 68.0 64.9 90% NA NA 29.98 1014.5
9:53 pm EDT N 0.0 7.00 Fair -- 69.0 66.0 90% NA NA 29.98 1014.4
8:53 pm EDT W 3.5 10.00 Fair -- 70.0 66.9 90% NA NA 29.97 1014.4
7:53 pm EDT N 0.0 10.00 Fair -- 73.0 66.0 79% NA NA 29.97 1014.4
6:53 pm EDT N 4.6 10.00 A Few Clouds Trace 73.0 68.0 84% NA NA 29.96 1013.9

Regional Weather Observation


Indianapolis International Airport, IN (KIND)

Mostly Cloudy
75.0 F

Terre Haute Regional Airport, IN (KHUF)

Mostly Cloudy
74.0 F

Indianapolis, Eagle Creek Airpark, IN (KEYE)

Mostly Cloudy
74.0 F

Robinson Municipal Airport, IL (KRSV)

Fair
73.0 F

Edgar County Airport, IL (KPRG)

Partly Cloudy
74.0 F

Columbus / Bakalar, IN (KBAK)

Partly Cloudy
73.0 F